Location: Newark
(0.5300°S, 127.4800°E)
Time: 10:55:56
(UTC+00:00)

A-11 Canister half - Visible Passes

Search period start: 23 September 2019 00:00
Search period end: 03 October 2019 00:00
Orbit: 1513 x 1686 km, 47.2° (Epoch: 22 September)

Date Brightness Start Highest point End Pass type
(mag) Time Alt. Az. Time Alt. Az. Time Alt. Az.
23 Sep 10.0 10:38:31 10° WNW 10:47:34 46° SW 10:56:58 10° SSE visible
23 Sep 11.2 19:23:06 10° S 19:29:00 17° SE 19:34:45 10° E visible
24 Sep 9.9 10:15:28 10° WNW 10:24:37 50° SW 10:34:08 10° SSE visible
24 Sep 11.2 19:00:41 10° SSE 19:05:58 15° SE 19:11:08 10° ESE visible
25 Sep 9.8 09:52:27 10° NW 10:01:40 54° SW 10:11:18 10° SSE visible
25 Sep 11.2 18:38:24 10° SSE 18:42:56 14° SE 18:47:23 10° ESE visible
25 Sep 9.4 20:38:32 10° SSW 20:48:28 74° SE 20:57:59 10° NE visible
26 Sep 9.8 09:29:26 10° NW 09:38:44 59° SW 09:48:26 10° SSE visible
26 Sep 11.3 18:16:18 10° SSE 18:19:53 12° SE 18:23:24 10° ESE visible
26 Sep 9.4 20:15:37 10° SSW 20:25:32 68° SE 20:35:02 10° NE visible
27 Sep 11.4 11:19:06 10° WSW 11:21:31 11° SW 11:23:58 10° SSW visible
27 Sep 11.3 17:54:38 10° SSE 17:56:49 11° SE 17:58:57 10° SE visible
27 Sep 9.5 19:52:43 10° SSW 20:02:36 63° SE 20:12:04 10° NE visible
28 Sep 11.4 10:54:49 10° WSW 10:58:28 12° SW 11:02:11 10° SSW visible
28 Sep 9.6 19:29:51 10° SSW 19:39:39 58° SE 19:49:04 10° NE visible
29 Sep 11.3 10:30:54 10° WSW 10:35:25 14° SW 10:40:02 10° SSW visible
29 Sep 9.6 19:08:06 14° SSW 19:16:43 53° SE 19:26:03 10° NE visible
30 Sep 11.3 10:07:12 10° WSW 10:12:23 16° SW 10:17:42 10° S visible
30 Sep 9.7 18:48:04 25° S 18:53:45 49° SE 19:03:00 10° ENE visible
30 Sep 9.6 20:49:42 10° WSW 20:58:32 37° NW 21:07:08 10° NNE visible
01 Oct 11.2 09:43:36 10° W 09:49:22 17° SW 09:55:17 10° S visible
01 Oct 9.8 18:27:59 37° SSE 18:30:48 45° SE 18:39:56 10° ENE visible
01 Oct 9.5 20:26:31 10° WSW 20:35:36 40° NW 20:44:25 10° NNE visible
02 Oct 9.9 18:07:49 41° SE 18:07:50 41° SE 18:16:50 10° ENE visible
02 Oct 9.4 20:06:09 20° WSW 20:12:40 44° NW 20:21:40 10° NNE visible
